Regional Weather Roundup
Issued by NWS Wakefield, VA

Home | Current Version | Previous Version | Text Only | Print | Product List | Glossary Off
Versions: 1 2 3 4 5 6 7 8 9 10 11 12 13 14 15 16 17 18 19 20 21 22 23 24 25 26 27 28 29 30 31 32 33 34 35 36 37 38 39 40 41 42 43 44 45 46 47 48 49 50

000
ASUS41 KAKQ 222310
RWRAKQ

REGIONAL WEATHER ROUNDUP
NATIONAL WEATHER SERVICE WAKEFIELD VA
700 PM EDT FRI AUG 22 2014

Note: "fair" indicates few or no clouds below 12,000 feet with no
significant weather and/or obstructions to visibility. * = Denotes
station may not report precipitation (e.g., rain,snow,etc.),
thunder or fog.

VAZ042-051-052>054-056-230000-
NORTHERN VIRGINIA

CITY           SKY/WX    TMP DP  RH WIND       PRES   REMARKS
WASH NATIONAL  CLOUDY    81  68  64 E9        29.96S
DULLES         MOCLDY    79  68  69 CALM      29.96S
FORT BELVOIR   MOCLDY    79  71  77 VRB3      29.96S
QUANTICO       MOCLDY    80  70  71 CALM      29.96F
FREDERICKSBRG* CLEAR     80  71  74 NE3       29.94S
STAFFORD*      CLEAR     79  71  75 CALM      29.99F
WARRENTON      CLEAR     79  75  88 CALM      29.95S
CULPEPER*      PTCLDY   N/A N/A N/A CALM      29.96S
MANASSAS*      MOCLDY    79  72  78 E3        29.95S
LEESBURG*      PTCLDY    81  72  74 CALM      29.97S
WINCHESTER     MOSUNNY   79  66  65 CALM      29.97S
$$

VAZ048-049-060>072-079>083-230000-
CENTRAL AND SOUTH CENTRAL VIRGINIA...AND NORTH CENTRAL NORTH CAROLINA

CITY           SKY/WX    TMP DP  RH WIND       PRES   REMARKS
RICHMOND       MOCLDY    82  69  64 NE6       29.94S
CHESTERFIELD*  PTCLDY    82  64  54 W5        29.97R
HANOVER        PTCLDY    82  70  66 MISG      29.96S
TAPPAHANNOCK*  PTCLDY    79  68  69 CALM      29.96S
CHARLOTTSVILLE MOSUNNY   78  71  79 CALM      29.97S
ORANGE*        MOSUNNY   77  70  78 CALM      29.98S
LOUISA*        PTCLDY    81  70  69 CALM      29.95S
FARMVILLE*     PTSUNNY   82  72  69 CALM      29.93F
SOUTH HILL*    MOCLDY    81  73  78 CALM      30.00F
ROANOKE RAPIDS MOCLDY    79  72  78 CALM      29.95S
RALEIGH        PTSUNNY   82  72  71 CALM      29.97S
$$

VAZ088>098-230000-
SOUTHEAST VIRGINIA

CITY           SKY/WX    TMP DP  RH WIND       PRES   REMARKS
NORFOLK        MOCLDY    81  70  69 N8        29.94S
VIRGINIA BEACH CLOUDY    80  71  74 N8        29.93S
NORFOLK NAVAL  MOCLDY    82  69  64 N9        29.95S
WEST POINT*    CLEAR     82  69  65 N3        29.96S
NEWPORT NEWS   PTCLDY    83  71  67 NE3       29.94S
LANGLEY AFB    PTCLDY    80  70  72 N6        29.93S
FORT EUSTIS    MOCLDY    80  65  58 NE5       29.93S
WILLIAMSBURG*  PTCLDY    81  73  78 CALM      29.95S
FRANKLIN*      PTCLDY    81  72  74 CALM      29.94S
WAKEFIELD      CLEAR     81  72  74 CALM      29.94F
$$

VAZ020-022-025-037-045-230000-
WESTERN AND SOUTHWEST VIRGINIA

CITY           SKY/WX    TMP DP  RH WIND       PRES   REMARKS
STAUNTON*      MOSUNNY   79  69  72 S3        29.99F
HOT SPRINGS VA PTSUNNY  N/A N/A N/A W8        30.13F FOG
LYNCHBURG      CLOUDY    78  67  68 CALM      29.98F
DANVILLE       PTSUNNY   80  74  81 CALM      29.96F
MARTINSVILLE   CLOUDY    80  78  93 CALM      30.00S
ROANOKE        CLOUDY    80  70  71 CALM      30.00F
BLACKSBURG     LGT RAIN  75  73  94 CALM      30.08R
DUBLIN*        LGT RAIN  75  73  93 W5        30.08R
MARION*        CLOUDY    71  68  89 NW5       30.13F
HILLSVILLE*    RAIN      76  70  80 W7        30.10R
RICHLANDS*     CLOUDY    73  67  83 SE5       30.11S
WISE*          CLOUDY    73  64  73 SW6       30.11F
ABINGDON*      LGT RAIN  81  73  76 N5        30.07S
$$

MDZ021>025-VAZ099-100-230000-
SOUTHERN MARYLAND AND THE DELMARVA PENINSULA

CITY           SKY/WX    TMP DP  RH WIND       PRES   REMARKS
PATUXENT RIVER CLOUDY    75  69  81 E10       29.96S
BAY BRIDGE APT   N/A     77  68  73 E9        29.97S
LEONARDTOWN    CLOUDY    73  68  83 E6        29.98R
DOVER          CLOUDY    74  68  80 E9        29.98R
GEORGETOWN     CLOUDY    75  67  76 E13       29.99R
EASTON         CLOUDY    75  72  88 CALM      30.01R
CAMBRIDGE      MOCLDY    72  70  94 SE3       29.97S
SALISBURY      CLOUDY    77  70  79 E3        29.98R
OCEAN CITY     CLOUDY    75  69  81 E9        29.98R
WALLOPS ISLAND LGT RAIN  74  71  91 NE9       29.97S
ACCOMACK*      CLOUDY    73  70  88 NE6       29.95S
$$

NCZ012>017-030>032-230000-
EASTERN NORTH CAROLINA

CITY           SKY/WX    TMP DP  RH WIND       PRES   REMARKS
ELIZABETH CITY CLOUDY    81  68  64 NW6       29.94S
AHOSKIE*       MOCLDY    80  73  80 CALM      29.94S
EDENTON*       MOCLDY    81  74  81 CALM      29.94S
CURRITUCK*     CLOUDY    81  69  66 N3        29.94S
KILL DEVIL HLS CLOUDY    79  72  78 N3        29.93S
MANTEO         CLOUDY    81  72  74 NE7       29.94S
CAPE HATTERAS  CLOUDY    83  72  69 N3        29.92S
GOLDSBORO      MOCLDY    80  75  82 SW8       29.93S
WASHINGTON     MOCLDY    83  73  72 CALM      29.94S
GREENVILLE     MOCLDY    84  72  65 N3        29.96S
NEW BERN       MOCLDY    90  72  55 NW6       29.94S HX  97
WILMINGTON     LGT RAIN  80  75  84 E8        29.94R
$$

VAZ048-230000-
ELSEWHERE

CITY           SKY/WX    TMP DP  RH WIND       PRES   REMARKS
HARRISBURG PA  CLOUDY    77  67  71 SE10      29.96S
BALTIMORE      MOCLDY    76  68  76 E8        29.97S
ANNAPOLIS      CLOUDY    77  70  79 CALM      29.97R
ANDREWS AFB    CLOUDY    76  71  84 E7        29.96S
WILMINGTON DE  CLOUDY    76  67  73 E7        30.00R
PHILADELPHIA   CLOUDY    75  65  70 E8        30.00R
WILDWOOD NJ*   PTCLDY    73  63  68 NE9       30.00R
ATLANTIC CITY  PTCLDY    72  63  73 E10       30.01R
HENDERSON NC   PTSUNNY   80  69  70 NW3       29.97S
GREENSBORO     PTSUNNY   85  70  60 SW6       29.97F
ROCKY MOUNT    MOCLDY    84  73  69 N5        29.95S
FAYETTEVILLE   PTSUNNY   93  71  48 NE5       29.93S HX 100
CHARLOTTE      MOSUNNY   90  66  45 SW5       29.98S
$$

VAZ100-230000-
MARINE

STATION/POSITION TIME  TEMP    WIND        PRES    WAVE   SWELL
                       AIR SEA DIR/SP/G            HT/PER HT/PER
                 (UTC) (F)     (DEG/KT/KT) (MB)    (FT/S) (FT/S)
44066 TX TWR #4  2300   71 73   50/ 16/ 17 1015.1F   3/ 7   2/ 7
CAPE MAY NJ      2300   74 81   70/  7/ 11 1014.9R
LEWES DE         2300   74 76   90/ 11/ 14 1015.2S
15NM E FENWICK I 2300   74 76              1014.7R   3/ 7
OCEAN-CITY-INLET 2300   75 77   70/  7/ 10 1014.8R
WACHAPREAGUE VA  2300   76 82   30/ 13/ 16 1014.3S
THOMAS POINT MD  2300   76 79  110/ 15/ 16 1015.1S
GOOSES REEF MD   2300   76     130/ 12/ 16 1015.2R
COVE POINT MD    2300   74     130/ 14/ 16 1014.5R
SOLOMONS ISLAND  2300      80                N/A
BISHOPS HEAD MD  2300   73 81  110/  8/ 10 1014.4R
PINEY POINT MD   2300          110/ 12/ 12   N/A
POTOMAC MD       2300   76     100/ 14/ 17 1013.7S
CAMBRIDGE MD     2300   73 79  120/  4/  5 1014.6F
LEWISETTA VA     2300   78 81   40/  6/  8 1014.0F
RAPPAHANNOCK LGT 2300           60/ 15/ 17 1014.6R
STINGRAY PT      2300   78      20/ 12/ 14 1014.8S
YORK RVR RNG VA  2300   80      10/  9/ 10 1013.5S
YORKTOWN VA      2300   80 81   10/  6/  7 1013.6F
JAMESTOWN VA     2300   78      50/  4/  6   N/A
DOMINION TERM VA 2300   81     330/  5/  7 1013.8F
KIPTOPEKE VA     2300      82   20/  8/ 10   N/A
CHES BAY BRIDGE  2300   80 79  330/  9/ 10 1013.5S
CAPE HENRY VA    2300   79     360/ 11/ 11 1012.7R
CHESAPEAKE LGHT  2200   79     330/ 11/ 12 1014.4R
WILLOUBY STN VA  2300   80     360/  8/ 10 1012.8R
S CRANEY ISL VA  2300          350/  8/ 10 1013.5S
CAPE HENRY BUOY  2200      78                N/A     2/ 7
1ST LANDING BUOY 2300   79     360/  8/ 10 1013.5S
CAPE CHARLES BUO 2300      79                N/A     2/ 7   2/ 7
OFFSHORE WE BUOY 2300      78                N/A     2/ 8   2/ 8
64NM E OF VA BCH 2300   78 79   20/  8/ 10 1013.2S   2/ 8   2/ 8
DUCK PIER NC     2300   79 81   10/ 13/ 14 1012.8S
44056 DUCK FRF   2300                        N/A     2/ 7
OREGON INLET NC  2300   80 85   10/  9/ 12 1013.5S
HATTERAS NC      2300   85 85  350/  9/ 11 1013.8S
DIAMOND SHLS NC  2300   81     350/  8/ 10 1012.9S   2/ 8   2/ 8
CAPE LOOKOUT NC  2200   86     240/  9/ 11 1013.2F
$$



USA.gov is the U.S. government's official web portal to all federal, state and local government web resources and services.